sat.trackr.live / text

‹ back to catalog

STARLINK-35088

NORAD 65344 · 2025-189X

PAYLOAD ACTIVE UNKNOWN

§ Identity

Operator
Country
US
Launch date
2025-08-27
Launch site
AFETR
Launch vehicle
Mass (kg)
RCS (m²)

Purposes: comms

External: N2YO · Heavens-Above · Gunter

§ Orbital elements

Epoch: 2026-05-25T04:15:30.325248Z

Period
94.10 min
Inclination
53.1580°
Eccentricity
0.0001162
Mean motion
15.30210013 rev/d
Perigee alt
474.4 km
Apogee alt
476.0 km
Semi-major
6,853.3 km
B*
4.7876e-4
RAAN
211.7300°
Arg perigee
89.7472°
Mean anomaly
270.3662°
Rev number
4,282

§ Raw data

STARLINK-350881 65344U 25189X   26145.17743432  .00013851  00000+0  47876-3 0  99982 65344  53.1580 211.7300 0001162  89.7472 270.3662 15.30210013 42825

JSON: /api/v1/satellites/65344 · /tle

For live sub-satellite position, see the globe view (requires WebGL).

§ Visibility from observer

Set your observer location to see the next 7 days of passes ≥ 10°. The values pass through the URL so the page stays shareable.

No JS? Fill the form by hand. The geolocation button needs JavaScript.